Volver al catálogo

STARLINK-31881

ActivoComunicacionesVLEO
NORAD 59659·PAYLOAD·🇺🇸 United States

Lanzado May 6, 2024 desde Cape Canaveral Space Force Station

Loading…

Próximos Pases (próximas 24 horas)

TLE

ActualizadoSource: CelesTrak SupGP

Época: Sep 15, 2026, 03:11 UTC

1 59659C 24084F   26258.13312500 -.00030472  00000+0 -11033-2 0  2585
2 59659  43.0035  48.0915 0002117 273.6431 325.8342 15.27604905    12

Sigue STARLINK-31881 en tiempo real con AllMySat

Download on the App Store